PBO Station Position Time Series. Reference Frame : NAM14
Format Version,1.1.0
4-character ID,MOIL
Station name,MOIL_BRGN_NV2006
Begin Date, 2006-11-16
End Date, 2021-06-30
Release Date, 2021-12-30
Reference position, 40.7106825539 North Latitude, -115.4121141871 East Longitude, 2160.45145 meters elevation,
Date, North (mm), East (mm), Vertical (mm), North Std. Deviation (mm), East Std. Deviation (mm),              Vertical Std. Deviation (mm), Quality,
2006-11-16,0.00, 0.00, 0.00, 2.04, 1.62, 7.19, repro,
2006-11-17,1.31, 0.08, -4.29, 2.03, 1.62, 7.18, repro,
2006-11-18,1.63, 0.51, -1.05, 2.09, 1.67, 7.35, repro,
2006-11-19,0.28, 0.88, -4.03, 2.04, 1.63, 7.23, repro,
2006-11-20,0.21, 2.99, 1.56, 2.03, 1.62, 7.17, repro,
2006-11-21,-1.89, 1.43, -3.27, 2.05, 1.62, 7.20, repro,
2006-11-22,-1.89, 2.75, -9.55, 2.03, 1.62, 7.14, repro,
2006-11-23,-0.59, 0.39, -6.57, 2.06, 1.67, 7.38, repro,
2006-11-24,1.71, 1.22, -5.99, 2.16, 1.69, 7.54, repro,
2006-11-25,0.36, 1.63, -1.29, 2.07, 1.65, 7.27, repro,
2006-11-26,0.21, 0.76, 1.77, 2.08, 1.64, 7.26, repro,
2006-11-27,-0.81, 0.40, -5.06, 2.08, 1.65, 7.25, repro,
2006-11-28,-0.25, 0.21, 2.38, 2.03, 1.62, 7.11, repro,
2006-11-29,0.69, 0.93, -3.70, 2.04, 1.63, 7.20, repro,
2006-11-30,1.54, 0.90, -5.59, 2.03, 1.63, 7.17, repro,
2006-12-01,1.39, -0.05, -6.73, 2.03, 1.63, 7.16, repro,
2006-12-02,0.35, 0.95, -9.91, 2.04, 1.63, 7.14, repro,
2006-12-03,0.94, 0.83, -8.62, 2.05, 1.65, 7.28, repro,
2006-12-04,1.16, 0.76, -9.89, 2.09, 1.64, 7.26, repro,
2006-12-05,0.76, 1.52, -7.20, 2.11, 1.75, 7.50, repro,
2006-12-06,1.65, 1.27, -8.82, 2.14, 1.77, 7.64, repro,
2006-12-07,0.57, 1.12, -7.72, 2.06, 1.68, 7.29, repro,
2006-12-08,-0.43, 1.52, -4.04, 2.05, 1.68, 7.25, repro,
2006-12-09,-0.15, 2.75, 1.57, 2.17, 1.76, 7.52, repro,
2006-12-10,1.98, 2.64, 0.34, 2.17, 1.71, 7.50, repro,
2006-12-11,0.62, 0.48, -3.22, 2.04, 1.64, 7.20, repro,
2006-12-12,0.36, 1.54, -3.09, 2.10, 1.69, 7.38, repro,
2006-12-13,0.79, -0.75, 6.15, 2.05, 1.69, 7.36, repro,
2006-12-14,0.04, -1.94, 8.08, 2.04, 1.65, 7.26, repro,
2006-12-15,-1.04, 0.02, -1.42, 2.14, 1.74, 7.66, repro,
2006-12-16,1.94, 1.06, 3.40, 2.16, 1.78, 7.66, repro,
2006-12-17,1.51, 0.42, 1.30, 2.15, 1.77, 7.89, repro,
2006-12-18,0.38, 0.13, -3.84, 2.34, 1.88, 8.53, repro,
2006-12-19,0.72, 1.85, -2.94, 2.15, 1.80, 7.82, repro,
2006-12-20,0.24, 1.05, -4.76, 2.23, 1.83, 7.93, repro,
2006-12-21,1.14, 0.30, 0.24, 2.05, 1.73, 7.37, repro,
2006-12-22,1.57, -0.04, -4.67, 2.32, 2.02, 8.58, repro,
2006-12-23,1.44, 0.11, -3.57, 2.12, 1.72, 7.66, repro,
2006-12-24,0.87, 1.56, -8.23, 2.02, 1.65, 7.21, repro,
2006-12-25,0.28, 1.08, -8.81, 2.12, 1.75, 7.55, repro,
2006-12-26,0.48, 0.46, -1.47, 2.19, 1.75, 7.78, repro,
2006-12-27,0.24, 0.69, 0.62, 2.15, 1.76, 7.84, repro,
2006-12-28,1.79, -0.07, -3.29, 2.50, 2.13, 9.48, repro,
2006-12-29,2.29, 0.64, -16.57, 2.25, 1.91, 8.28, repro,
2006-12-30,1.68, 0.20, -8.94, 2.11, 1.74, 7.61, repro,
2006-12-31,1.50, 0.43, -10.68, 2.28, 1.86, 8.32, repro,
2007-01-01,0.29, 0.11, -5.35, 2.34, 1.93, 8.51, repro,
2007-01-02,0.77, 0.79, -6.27, 2.28, 1.90, 8.35, repro,
2007-01-03,0.48, -0.05, -3.97, 2.06, 1.71, 7.46, repro,
2007-01-04,1.29, 1.84, -1.70, 2.05, 1.71, 7.41, repro,
2007-01-05,4.91, 1.06, -8.29, 2.09, 1.76, 7.51, repro,
2007-01-06,1.40, -0.44, -10.30, 2.05, 1.70, 7.36, repro,
2007-01-07,2.30, -0.06, -6.62, 2.10, 1.71, 7.41, repro,
2007-01-08,1.87, -0.68, -8.74, 2.12, 1.72, 7.47, repro,
2007-01-09,0.73, 0.97, -12.72, 2.08, 1.66, 7.15, repro,
2007-01-10,-0.98, 1.57, -4.47, 2.08, 1.66, 7.25, repro,
2007-01-11,0.49, 1.06, -7.49, 2.11, 1.67, 7.34, repro,
2007-01-12,0.53, 0.41, -6.40, 2.03, 1.61, 7.12, repro,
2007-01-13,1.37, -1.23, -7.84, 1.98, 1.60, 6.94, repro,
2007-01-14,1.50, 0.35, -11.48, 1.99, 1.59, 6.90, repro,
2007-01-15,1.45, 1.17, -15.63, 2.00, 1.61, 7.05, repro,
2007-01-16,1.56, 0.80, -14.99, 2.05, 1.61, 7.10, repro,
2007-01-17,2.06, 0.30, -10.87, 2.02, 1.65, 7.13, repro,
2007-01-18,1.93, 0.40, -16.48, 2.10, 1.71, 7.41, repro,
2007-01-19,1.46, 1.42, -14.82, 2.07, 1.63, 7.21, repro,
2007-01-20,1.44, 1.16, -10.15, 2.06, 1.62, 7.21, repro,
2007-01-21,1.15, 0.92, -7.29, 2.03, 1.65, 7.11, repro,
2007-01-22,1.55, 0.95, -12.47, 1.99, 1.59, 6.93, repro,
2007-01-23,1.21, 0.87, -14.46, 2.00, 1.60, 7.00, repro,
2007-01-24,1.24, 1.10, -15.29, 2.00, 1.60, 7.01, repro,
2007-01-25,1.33, 1.09, -16.01, 2.07, 1.63, 7.09, repro,
2007-01-26,0.92, 1.18, -10.87, 2.00, 1.60, 6.97, repro,
2007-01-27,2.10, 1.36, -6.58, 1.98, 1.59, 6.90, repro,
2007-01-28,1.41, 0.74, -9.16, 1.99, 1.59, 6.92, repro,
2007-01-29,0.81, 1.36, -13.17, 2.00, 1.59, 6.96, repro,
2007-01-30,1.67, 1.27, -7.25, 2.06, 1.64, 7.15, repro,
2007-01-31,0.54, 0.60, -3.88, 2.00, 1.59, 6.91, repro,
2007-02-01,1.25, 0.52, -4.67, 2.04, 1.65, 7.23, repro,
2007-02-02,1.82, 0.14, -4.45, 2.03, 1.60, 7.06, repro,
2007-02-03,2.03, 0.47, -7.17, 2.05, 1.61, 7.12, repro,
2007-02-04,0.94, 1.21, -10.47, 2.01, 1.60, 7.00, repro,
2007-02-05,1.12, 1.58, -13.95, 2.00, 1.59, 6.94, repro,
2007-02-06,1.55, 2.33, -14.35, 2.04, 1.61, 7.03, repro,
2007-02-07,1.95, 0.87, -8.75, 1.98, 1.59, 6.91, repro,
2007-02-08,1.71, 1.05, -10.33, 2.09, 1.68, 7.33, repro,
2007-02-09,0.72, 1.98, -8.44, 2.04, 1.66, 7.19, repro,
2007-02-10,2.37, 1.22, -12.96, 2.01, 1.60, 6.99, repro,
2007-02-11,-0.36, 0.86, -2.06, 2.01, 1.59, 6.96, repro,
2007-02-12,1.57, 1.76, -10.89, 1.99, 1.58, 6.87, repro,
2007-02-13,2.44, 1.16, -8.90, 1.99, 1.59, 6.92, repro,
2007-02-14,1.39, 1.83, -10.77, 2.00, 1.59, 6.95, repro,
2007-02-15,1.10, 1.44, -2.70, 2.00, 1.60, 7.02, repro,
2007-02-16,3.04, -1.04, 1.37, 2.01, 1.60, 7.01, repro,
2007-02-17,1.27, 1.30, -11.56, 2.03, 1.62, 7.02, repro,
2007-02-18,0.60, 1.34, -4.17, 1.99, 1.58, 6.92, repro,
2007-02-19,0.17, 3.24, -3.18, 2.00, 1.58, 6.90, repro,
2007-02-20,0.56, 0.08, 5.58, 2.00, 1.59, 6.96, repro,
2007-02-21,0.69, 0.52, -2.00, 2.00, 1.59, 6.97, repro,
2007-02-22,-2.04, 1.60, -13.54, 2.02, 1.59, 7.01, repro,
2007-02-23,2.01, 0.30, 0.48, 2.26, 1.73, 7.59, repro,
2007-02-24,2.83, -0.16, 1.63, 2.00, 1.59, 6.96, repro,
2007-02-25,1.26, 1.50, -1.26, 2.02, 1.60, 7.04, repro,
2007-02-26,1.19, 1.10, 0.13, 2.01, 1.61, 7.05, repro,
2007-02-27,-0.15, 1.18, 3.13, 1.99, 1.58, 6.98, repro,
2007-02-28,0.74, 0.66, 1.14, 2.02, 1.58, 6.94, repro,
2007-03-01,-0.63, 1.60, 0.09, 2.08, 1.67, 7.29, repro,
2007-03-02,2.10, 0.31, -1.87, 2.07, 1.67, 7.31, repro,
2007-03-03,1.59, 1.23, -9.84, 2.05, 1.64, 7.25, repro,
2007-03-04,1.57, 1.61, -13.44, 2.04, 1.64, 7.25, repro,
2007-03-05,1.47, 1.72, -10.65, 2.05, 1.64, 7.19, repro,
2007-03-06,0.97, 0.60, -7.51, 2.06, 1.63, 7.18, repro,
2007-03-07,1.24, 0.68, -2.73, 2.06, 1.63, 7.18, repro,
2007-03-08,-0.43, 0.72, -2.32, 2.05, 1.63, 7.18, repro,
2007-03-09,-0.20, 1.10, -1.98, 2.05, 1.63, 7.22, repro,
2007-03-10,0.93, 1.13, -3.96, 2.09, 1.67, 7.35, repro,
2007-03-11,1.52, 0.61, -11.01, 2.09, 1.68, 7.44, repro,
2007-03-12,0.58, 1.16, -10.51, 2.10, 1.68, 7.49, repro,
2007-03-13,0.78, 0.94, -6.54, 2.02, 1.59, 7.00, repro,
2007-03-14,0.05, 1.16, -4.36, 2.01, 1.58, 7.01, repro,
2007-03-15,1.86, 1.46, -8.70, 2.06, 1.68, 7.26, repro,
2007-03-16,0.77, 1.81, -10.83, 2.04, 1.61, 7.10, repro,
2007-03-17,0.69, 0.37, -0.55, 2.03, 1.58, 7.01, repro,
2007-03-18,0.19, 1.10, 0.94, 2.02, 1.59, 7.03, repro,
2007-03-19,0.84, 0.91, 1.76, 2.02, 1.59, 7.03, repro,
2007-03-20,0.02, 1.33, 1.81, 2.15, 1.66, 7.34, repro,
2007-03-21,-0.20, 1.92, -3.77, 2.14, 1.64, 7.31, repro,
2007-03-22,0.27, 0.80, 1.08, 2.05, 1.62, 7.20, repro,
2007-03-23,1.67, 0.66, -5.41, 2.06, 1.61, 7.19, repro,
2007-03-24,0.43, -0.65, 1.25, 2.06, 1.62, 7.22, repro,
2007-03-25,-1.00, 0.57, 1.35, 2.02, 1.58, 7.01, repro,
2007-03-26,-0.30, 0.50, -4.68, 2.03, 1.58, 7.00, repro,
2007-03-27,-0.54, 1.72, -0.45, 2.07, 1.59, 7.11, repro,
2007-03-28,2.25, -0.21, -1.89, 2.10, 1.61, 7.26, repro,
2007-03-29,1.38, -0.30, -3.77, 2.06, 1.61, 7.19, repro,
2007-03-30,0.75, 1.61, -7.27, 2.04, 1.59, 7.05, repro,
2007-03-31,0.68, 0.13, -2.63, 2.04, 1.58, 7.04, repro,
2007-04-01,0.07, -0.09, -1.13, 2.03, 1.57, 6.96, repro,
2007-04-02,-0.55, -0.85, 4.73, 2.01, 1.57, 6.93, repro,
2007-04-03,0.21, 1.65, -10.61, 2.09, 1.67, 7.43, repro,
2007-04-04,0.51, 1.30, -10.58, 2.10, 1.65, 7.33, repro,
2007-04-05,0.57, 0.75, -9.47, 2.14, 1.65, 7.40, repro,
2007-04-06,0.55, 1.59, -7.37, 2.10, 1.65, 7.33, repro,
2007-04-07,0.90, 1.57, 1.89, 2.10, 1.67, 7.28, repro,
2007-04-08,-0.52, 0.55, -1.28, 2.01, 1.57, 6.92, repro,
2007-04-09,0.18, 1.83, 0.53, 2.02, 1.57, 6.97, repro,
2007-04-10,0.95, 1.96, 4.18, 2.07, 1.61, 7.17, repro,
2007-04-11,1.06, 1.50, 0.11, 2.04, 1.58, 7.02, repro,
2007-04-12,1.30, 0.56, 3.68, 2.08, 1.63, 7.18, repro,
2007-04-13,0.50, 0.69, -5.32, 2.03, 1.58, 7.01, repro,
2007-04-14,1.31, 2.46, -2.73, 2.01, 1.58, 6.98, repro,
2007-04-15,-0.46, 1.24, -1.30, 2.04, 1.59, 7.14, repro,
2007-04-16,0.82, 1.49, -3.00, 2.05, 1.58, 7.07, repro,
2007-04-17,-0.32, 0.96, -2.44, 2.06, 1.59, 7.07, repro,
2007-04-18,-0.42, 1.21, -4.95, 2.04, 1.58, 7.03, repro,
2007-04-19,0.69, 0.89, -2.31, 2.01, 1.58, 7.00, repro,
2007-04-20,0.91, 0.89, -1.90, 2.02, 1.59, 7.06, repro,
2007-04-21,-0.03, 1.58, 0.48, 2.06, 1.59, 7.15, repro,
2007-04-22,0.15, 0.52, -1.59, 2.05, 1.57, 7.05, repro,
2007-04-23,0.40, 1.33, -3.70, 2.08, 1.61, 7.13, repro,
2007-04-24,0.98, 1.53, -10.46, 2.06, 1.62, 7.15, repro,
2007-04-25,1.07, 0.34, -6.37, 2.08, 1.63, 7.21, repro,
2007-04-26,1.48, 0.31, -1.37, 2.04, 1.58, 7.05, repro,
2007-04-27,1.54, 0.62, -2.70, 2.09, 1.64, 7.32, repro,
2007-04-28,0.32, 1.42, -6.08, 2.07, 1.58, 7.11, repro,
2007-04-29,0.60, 0.55, -9.73, 2.04, 1.57, 7.01, repro,
2007-04-30,0.66, 1.01, -7.82, 2.04, 1.56, 6.98, repro,
2007-05-01,0.62, 2.21, -4.15, 2.03, 1.56, 7.00, repro,
2007-05-02,-0.31, 0.74, -9.50, 2.11, 1.60, 7.26, repro,
2007-05-03,0.18, 2.25, -0.23, 2.20, 1.63, 7.44, repro,
2007-05-04,1.42, 0.71, -3.87, 2.05, 1.56, 7.00, repro,
2007-05-05,1.72, 0.49, -3.29, 2.08, 1.60, 7.13, repro,
2007-05-06,0.53, 0.72, -7.95, 2.04, 1.57, 7.04, repro,
2007-05-07,0.93, 1.09, -9.60, 2.05, 1.57, 7.06, repro,
2007-05-08,1.46, 0.71, -5.82, 2.05, 1.57, 7.06, repro,
2007-05-09,1.43, 0.39, -3.00, 2.06, 1.58, 7.12, repro,
2007-05-10,1.50, 0.80, -6.68, 2.15, 1.62, 7.39, repro,
2007-05-11,2.27, 3.20, -9.23, 2.15, 1.63, 7.40, repro,
2007-05-12,4.47, 3.80, -8.69, 2.05, 1.56, 7.00, repro,
2007-05-13,1.16, 1.09, -3.41, 2.12, 1.61, 7.25, repro,
2007-05-14,0.41, 1.15, -10.75, 2.08, 1.58, 7.08, repro,
2007-05-15,1.21, 1.71, -5.30, 2.06, 1.57, 7.02, repro,
2007-05-16,0.80, 1.84, -6.23, 2.07, 1.57, 7.05, repro,
2007-05-17,1.03, 1.64, -5.82, 2.07, 1.61, 7.12, repro,
2007-05-18,2.46, 0.40, 1.01, 2.13, 1.65, 7.32, repro,
2007-05-19,1.44, 1.92, -5.21, 2.11, 1.60, 7.14, repro,
2007-05-20,0.40, 1.27, -1.09, 2.10, 1.60, 7.15, repro,
2007-05-21,0.58, -0.77, 0.49, 2.08, 1.60, 7.09, repro,
2007-05-22,1.09, -0.34, 2.84, 2.07, 1.57, 6.97, repro,
2007-05-23,0.92, 1.59, -6.60, 2.08, 1.60, 7.06, repro,
2007-05-24,1.57, 1.06, -2.51, 2.12, 1.63, 7.20, repro,
2007-05-25,0.32, 1.30, -0.11, 2.10, 1.61, 7.15, repro,
2007-05-26,2.13, 0.80, -1.40, 2.09, 1.60, 7.12, repro,
2007-05-27,1.85, 0.83, 1.19, 2.08, 1.57, 6.98, repro,
2007-05-28,0.73, 1.09, -1.52, 2.07, 1.57, 6.98, repro,
2007-05-29,1.63, 0.98, -3.26, 2.05, 1.57, 6.92, repro,
2007-05-30,0.68, 1.58, -5.36, 2.10, 1.58, 7.02, repro,
2007-05-31,0.44, 1.32, -1.49, 2.10, 1.60, 7.10, repro,
2007-06-01,0.82, 1.49, -1.19, 2.07, 1.58, 7.02, repro,
2007-06-02,1.79, 0.23, 0.97, 2.04, 1.56, 6.95, repro,
2007-06-03,1.57, 1.08, -2.84, 2.04, 1.58, 7.02, repro,
2007-06-04,0.95, 1.21, 1.25, 2.05, 1.57, 6.98, repro,
2007-06-05,1.11, 1.95, 0.42, 2.08, 1.58, 7.06, repro,
2007-06-06,-0.37, 0.86, 8.48, 2.04, 1.56, 6.95, repro,
2007-06-07,0.41, 0.63, -0.15, 2.05, 1.57, 7.04, repro,
2007-06-08,0.82, 1.26, -6.70, 2.05, 1.57, 7.02, repro,
2007-06-09,-0.23, 1.23, -7.60, 2.07, 1.61, 7.12, repro,
2007-06-10,0.55, 1.00, -3.20, 2.05, 1.57, 7.00, repro,
2007-06-11,1.25, 1.49, 1.34, 2.08, 1.66, 7.22, repro,
2007-06-12,-0.07, 2.10, -3.84, 2.08, 1.65, 7.24, repro,
2007-06-13,0.88, 0.54, -6.49, 2.09, 1.63, 7.15, repro,
2007-06-14,0.32, 2.42, -16.91, 2.09, 1.64, 7.16, repro,
2007-06-15,1.35, 1.42, -5.83, 2.05, 1.58, 7.04, repro,
2007-06-16,0.39, 1.78, -2.55, 2.03, 1.57, 6.97, repro,
2007-06-17,0.18, 1.84, -3.95, 2.03, 1.58, 6.99, repro,
2007-06-18,0.58, 2.05, 1.19, 2.04, 1.58, 7.00, repro,
2007-06-19,1.06, 1.96, -6.06, 2.04, 1.58, 7.01, repro,
2007-06-20,1.67, 3.02, -2.95, 2.04, 1.58, 6.99, repro,
2007-06-21,0.57, 2.69, -4.12, 2.03, 1.57, 6.92, repro,
2007-06-22,1.27, 1.97, -7.09, 2.02, 1.57, 6.90, repro,
2007-06-23,0.35, 1.47, -5.81, 2.03, 1.57, 6.93, repro,
2007-06-24,-0.02, 0.79, -3.79, 2.07, 1.62, 7.22, repro,
2007-06-25,0.89, 1.58, -7.52, 2.05, 1.58, 7.03, repro,
2007-06-26,1.20, 2.04, -10.18, 2.05, 1.57, 7.02, repro,
2007-06-27,1.60, 2.01, -3.98, 2.04, 1.56, 6.96, repro,
2007-06-28,0.42, 1.70, -3.65, 2.05, 1.57, 7.03, repro,
2007-06-29,1.16, 2.05, -1.61, 2.04, 1.57, 7.01, repro,
2007-06-30,0.02, 1.52, -2.82, 2.05, 1.57, 7.02, repro,
2007-07-01,1.64, 1.22, -1.11, 2.04, 1.56, 6.99, repro,
2007-07-02,0.84, 1.50, -1.79, 2.05, 1.58, 7.06, repro,
2007-07-03,1.13, 2.02, -8.26, 2.05, 1.57, 7.02, repro,
2007-07-04,0.93, 2.25, -6.32, 2.03, 1.58, 7.00, repro,
2007-07-05,0.53, 1.95, -6.90, 2.06, 1.58, 7.06, repro,
2007-07-06,1.88, 2.10, -5.84, 2.06, 1.59, 7.12, repro,
2007-07-07,0.86, 1.56, -8.84, 2.04, 1.57, 6.99, repro,
2007-07-08,0.04, 2.62, -3.99, 2.04, 1.59, 7.00, repro,
2007-07-09,1.13, 1.92, -3.80, 2.05, 1.59, 7.03, repro,
2007-07-10,1.19, 2.63, 0.60, 2.04, 1.58, 6.98, repro,
2007-07-11,0.98, 3.31, -4.70, 2.04, 1.57, 6.98, repro,
2007-07-12,-0.13, 0.64, 1.95, 2.08, 1.64, 7.22, repro,
2007-07-13,0.12, 2.93, -0.66, 2.08, 1.65, 7.20, repro,
2007-07-14,0.06, 1.80, 0.59, 2.07, 1.64, 7.19, repro,
2007-07-15,0.90, 2.62, -2.28, 2.09, 1.64, 7.19, repro,
2007-07-16,0.57, 2.50, 5.92, 2.06, 1.59, 7.08, repro,
2007-07-17,1.51, 6.85, -1.62, 2.10, 1.65, 7.24, repro,
2007-07-18,2.94, 6.89, -2.28, 2.05, 1.58, 7.04, repro,
2007-07-19,-0.84, 2.89, 1.57, 2.03, 1.58, 6.98, repro,
2007-07-20,-0.11, 3.55, 2.98, 2.09, 1.66, 7.21, repro,
2007-07-21,1.04, 1.39, 4.64, 2.10, 1.64, 7.19, repro,
2007-07-22,0.59, 1.85, 1.16, 2.14, 1.66, 7.36, repro,
2007-07-23,-0.89, 3.09, 0.82, 2.08, 1.63, 7.15, repro,
2007-07-24,0.00, 3.04, 5.26, 2.09, 1.65, 7.25, repro,
2007-07-25,1.53, 2.15, 3.95, 2.09, 1.65, 7.25, repro,
2007-07-26,2.50, 1.78, -0.14, 2.06, 1.59, 7.03, repro,
2007-07-27,1.13, 0.71, -2.75, 2.09, 1.66, 7.21, repro,
2007-07-28,1.91, 0.12, 4.12, 2.09, 1.65, 7.24, repro,
2007-07-29,0.91, 1.22, 4.63, 2.17, 1.77, 7.71, repro,
2007-07-30,0.08, 2.63, 3.59, 2.10, 1.67, 7.31, repro,
2007-07-31,-0.02, 1.70, 2.95, 2.09, 1.66, 7.24, repro,
2007-08-01,1.84, 1.93, 2.65, 2.04, 1.58, 6.99, repro,
2007-08-02,0.81, 2.05, 3.35, 2.05, 1.59, 7.04, repro,
2007-08-03,1.12, 1.58, 2.91, 2.04, 1.58, 7.00, repro,
2007-08-04,1.79, 1.48, 5.33, 2.03, 1.59, 7.03, repro,
2007-08-05,-0.25, 2.07, 3.95, 2.04, 1.58, 6.98, repro,
2007-08-06,1.01, 2.21, 9.06, 2.07, 1.62, 7.21, repro,
2007-08-07,1.18, 2.28, 5.38, 2.12, 1.69, 7.38, repro,
2007-08-08,1.65, 0.94, 4.45, 2.04, 1.58, 7.03, repro,
2007-08-09,2.30, 2.58, 0.37, 2.03, 1.57, 6.99, repro,
2007-08-10,0.91, 1.26, 7.44, 2.03, 1.58, 6.98, repro,
2007-08-11,1.47, 2.88, 1.23, 2.05, 1.58, 7.01, repro,
2007-08-12,5.61, 3.65, -4.81, 2.06, 1.60, 7.10, repro,
2007-08-13,5.46, 3.46, -3.26, 2.05, 1.58, 7.02, repro,
2007-08-14,1.13, 1.57, 0.22, 2.22, 1.73, 7.63, repro,
2007-08-15,0.11, 2.21, -2.27, 2.17, 1.68, 7.44, repro,
2007-08-16,-1.36, 0.47, 2.61, 2.14, 1.63, 7.32, repro,
2007-08-17,-1.28, 2.89, 2.58, 2.15, 1.64, 7.35, repro,
2007-08-18,0.87, 2.37, 9.60, 2.23, 1.76, 7.87, repro,
2007-08-19,-0.52, 0.87, 3.80, 2.17, 1.67, 7.57, repro,
2007-08-20,-1.14, 3.82, -4.41, 2.13, 1.62, 7.27, repro,
2007-08-21,0.06, 1.17, 1.47, 2.11, 1.62, 7.24, repro,
2007-08-22,-0.44, 2.66, 3.30, 2.18, 1.69, 7.64, repro,
2007-08-23,0.85, 2.19, 9.93, 2.11, 1.61, 7.19, repro,
2007-08-24,1.42, 1.75, 7.44, 2.22, 1.68, 7.47, repro,
2007-08-25,2.27, 1.78, 3.84, 2.14, 1.66, 7.33, repro,
2007-08-26,1.18, 0.78, 2.79, 2.23, 1.82, 7.79, repro,
2007-08-27,2.61, 2.04, 0.15, 2.24, 1.79, 7.94, repro,
2007-08-28,-0.34, 1.84, 1.16, 2.15, 1.66, 7.38, repro,
2007-08-29,1.55, 1.90, 2.77, 2.20, 1.75, 7.65, repro,
2007-08-30,0.01, 1.40, 0.93, 2.15, 1.67, 7.39, repro,
2007-08-31,0.60, 1.51, -1.48, 2.18, 1.68, 7.44, repro,
2007-09-01,1.85, 1.03, -0.27, 2.15, 1.67, 7.39, repro,
2007-09-02,2.37, 1.07, 6.42, 2.19, 1.70, 7.49, repro,
2007-09-03,2.80, -1.81, 2.67, 2.20, 1.74, 7.58, repro,
2007-09-04,-0.31, 1.72, -2.46, 2.24, 1.79, 8.01, repro,
2007-09-05,0.86, 1.23, 5.50, 2.15, 1.67, 7.35, repro,
2007-09-06,2.59, 1.00, 1.25, 2.15, 1.68, 7.40, repro,
2007-09-07,1.78, 1.08, 4.06, 2.18, 1.73, 7.50, repro,
2007-09-08,2.78, 1.57, 4.41, 2.29, 1.82, 7.94, repro,
2007-09-09,1.88, 0.54, -3.56, 2.22, 1.76, 7.68, repro,
2007-09-10,0.86, 0.65, -1.88, 2.15, 1.66, 7.30, repro,
2007-09-11,1.45, 1.06, -1.63, 2.15, 1.67, 7.31, repro,
2007-09-12,1.57, 1.16, 1.39, 2.16, 1.67, 7.37, repro,
2007-09-13,1.60, 1.35, 6.02, 2.25, 1.67, 7.52, repro,
2007-09-14,3.16, 0.69, 5.10, 2.20, 1.70, 7.50, repro,
2007-09-15,2.12, 1.03, 3.50, 2.23, 1.68, 7.55, repro,
2007-09-16,1.58, 1.67, 2.45, 2.16, 1.66, 7.30, repro,
2007-09-17,0.58, 0.04, 9.32, 2.24, 1.76, 7.73, repro,
2007-09-18,1.53, 0.60, 4.46, 2.17, 1.71, 7.46, repro,
2007-09-19,0.96, 1.05, 4.24, 2.06, 1.60, 7.08, repro,
2007-09-20,1.23, 1.77, 4.66, 2.08, 1.59, 7.09, repro,
2007-09-21,0.93, 1.08, 6.04, 2.16, 1.66, 7.37, repro,
2007-09-22,0.26, 2.83, -1.05, 2.14, 1.64, 7.28, repro,
2007-09-23,2.06, 1.51, 1.77, 2.21, 1.70, 7.62, repro,
2007-09-24,0.24, 1.64, 5.90, 2.22, 1.67, 7.49, repro,
2007-09-25,0.47, 0.76, -3.30, 2.13, 1.62, 7.26, repro,
2007-09-26,1.30, 0.65, 0.89, 2.12, 1.62, 7.16, repro,
2007-09-27,0.76, 0.95, 2.50, 2.12, 1.61, 7.19, repro,
2007-09-28,-0.35, 0.27, 2.20, 2.14, 1.69, 7.41, repro,
2007-09-29,-0.71, 1.68, 2.04, 2.17, 1.69, 7.47, repro,
2007-09-30,0.99, 0.59, 1.77, 2.17, 1.70, 7.49, repro,
2007-10-01,0.17, -0.29, 1.97, 2.13, 1.69, 7.44, repro,
2007-10-02,0.40, 1.15, 4.08, 2.17, 1.72, 7.60, repro,
2007-10-03,-0.71, 1.17, 5.42, 2.11, 1.65, 7.28, repro,
2007-10-04,-0.01, 1.26, 8.20, 2.21, 1.71, 7.63, repro,
2007-10-05,1.47, 1.19, 9.52, 2.20, 1.75, 7.76, repro,
2007-10-06,1.66, 0.50, 5.06, 2.14, 1.69, 7.40, repro,
2007-10-07,1.52, 0.58, 2.06, 2.18, 1.69, 7.49, repro,
2007-10-08,-0.01, 0.93, 0.42, 2.38, 1.79, 8.21, repro,
2007-10-09,-0.82, 3.40, -5.41, 2.32, 1.85, 8.09, repro,
2007-10-10,2.13, 2.17, -2.04, 2.31, 1.73, 7.84, repro,
2007-10-11,0.90, 1.30, -1.32, 2.15, 1.70, 7.46, repro,
2007-10-12,1.97, 0.93, 7.08, 2.14, 1.69, 7.42, repro,
2007-10-13,0.42, 0.91, 8.28, 2.08, 1.63, 7.25, repro,
2007-10-14,0.97, 1.37, -0.32, 2.08, 1.63, 7.24, repro,
2007-10-15,0.39, 1.18, 4.75, 2.08, 1.64, 7.20, repro,
2007-10-16,0.37, 0.82, 9.55, 2.09, 1.64, 7.24, repro,
2007-10-17,0.39, 0.49, 10.10, 2.12, 1.68, 7.36, repro,
2007-10-18,0.29, 1.50, 8.16, 2.07, 1.63, 7.16, repro,
2007-10-19,-2.55, -0.58, 7.98, 2.09, 1.63, 7.22, repro,
2007-10-20,-0.59, -0.38, 8.29, 2.13, 1.68, 7.45, repro,
2007-10-21,0.20, 0.82, -1.66, 2.09, 1.63, 7.20, repro,
2007-10-22,-0.20, 1.26, -6.47, 2.09, 1.63, 7.19, repro,
2007-10-23,0.32, 1.40, -10.72, 2.13, 1.69, 7.40, repro,
2007-10-24,-0.42, 2.59, -3.34, 2.17, 1.72, 7.60, repro,
2007-10-25,-0.01, 1.51, 0.03, 2.09, 1.63, 7.24, repro,
2007-10-26,1.27, 1.73, -0.92, 2.11, 1.67, 7.31, repro,
2007-10-27,0.66, 1.25, -6.30, 2.09, 1.62, 7.18, repro,
2007-10-28,0.56, 1.65, -9.83, 2.08, 1.62, 7.15, repro,
2007-10-29,-0.62, 1.48, -3.69, 2.08, 1.62, 7.19, repro,
2007-10-30,-0.80, 1.80, -5.84, 2.08, 1.61, 7.17, repro,
2007-10-31,0.67, 1.61, -4.45, 2.09, 1.62, 7.23, repro,
2007-11-01,1.32, 1.29, -6.22, 2.07, 1.60, 7.06, repro,
2007-11-02,0.53, 1.32, -3.98, 2.06, 1.59, 7.05, repro,
2007-11-03,0.44, 2.08, -7.51, 2.08, 1.60, 7.08, repro,
2007-11-04,0.60, 1.56, -5.84, 2.06, 1.59, 7.04, repro,
2007-11-05,0.48, 2.10, -5.01, 2.06, 1.60, 7.09, repro,
2007-11-06,0.31, 1.43, -6.87, 2.13, 1.71, 7.49, repro,
2007-11-07,0.63, 1.25, -6.61, 2.06, 1.59, 7.01, repro,
2007-11-08,-0.36, 1.52, -4.33, 2.09, 1.62, 7.11, repro,
2007-11-09,0.20, 1.90, -9.87, 2.09, 1.63, 7.21, repro,
2007-11-10,0.36, 0.94, 0.82, 2.07, 1.59, 7.05, repro,
2007-11-11,0.06, 1.47, -2.98, 2.05, 1.59, 7.00, repro,
2007-11-12,0.61, 0.94, -3.15, 2.05, 1.59, 7.05, repro,
2007-11-13,-0.10, 1.18, 2.92, 2.06, 1.58, 7.01, repro,
2007-11-14,0.68, 1.89, -8.86, 2.07, 1.61, 7.09, repro,
2007-11-15,1.61, 0.88, -2.04, 2.08, 1.61, 7.12, repro,
2007-11-16,-0.26, 1.26, -1.61, 2.06, 1.59, 7.06, repro,
2007-11-17,1.75, 0.57, 3.09, 2.06, 1.60, 7.08, repro,
2007-11-18,-0.33, -0.21, 1.99, 2.08, 1.62, 7.15, repro,
2007-11-19,-0.46, 1.25, -1.81, 2.06, 1.60, 7.09, repro,
2007-11-20,-0.03, 0.74, -8.80, 2.13, 1.69, 7.31, repro,
2007-11-21,0.67, 0.94, -6.48, 2.11, 1.66, 7.21, repro,
2007-11-22,2.02, 1.12, -7.11, 2.12, 1.66, 7.23, repro,
2007-11-23,1.80, 1.26, -3.14, 2.16, 1.75, 7.49, repro,
2007-11-24,0.66, 1.19, -5.42, 2.15, 1.70, 7.33, repro,
2007-11-25,1.30, 1.14, -1.65, 2.14, 1.70, 7.33, repro,
2007-11-26,1.39, 1.57, -9.73, 2.19, 1.71, 7.50, repro,
2007-11-27,0.50, 2.09, -2.60, 2.13, 1.70, 7.30, repro,
2007-11-28,1.96, 0.63, -12.16, 2.22, 1.71, 7.51, repro,
2007-11-29,2.34, -0.72, -4.77, 2.26, 1.75, 7.65, repro,
2007-11-30,0.66, 0.84, -2.35, 2.16, 1.72, 7.38, repro,
2007-12-01,1.67, 0.86, 4.99, 2.24, 1.79, 7.79, repro,
2007-12-02,-0.67, 1.86, -2.18, 2.39, 1.94, 8.28, repro,
2007-12-03,-0.11, 1.51, -7.56, 2.33, 1.83, 8.25, repro,
2007-12-04,2.24, -0.36, -2.88, 2.34, 1.93, 8.31, repro,
2007-12-05,1.29, 0.27, -0.59, 2.28, 1.85, 8.16, repro,
2007-12-06,1.91, 1.53, 4.37, 2.31, 1.84, 8.18, repro,
2007-12-07,0.30, 1.62, -0.25, 2.29, 1.86, 7.95, repro,
2007-12-08,1.71, 1.09, 0.71, 2.30, 1.81, 7.83, repro,
2007-12-09,1.65, 0.67, -6.94, 2.56, 2.24, 9.34, repro,
2007-12-10,2.39, 0.85, -6.64, 2.22, 1.80, 7.73, repro,
2007-12-11,2.02, 0.35, -8.00, 2.19, 1.73, 7.55, repro,
2007-12-12,2.57, 0.15, -15.46, 2.30, 1.77, 7.87, repro,
2007-12-13,1.32, 1.32, -9.30, 2.23, 1.75, 7.57, repro,
2007-12-14,1.50, 0.46, -7.19, 2.11, 1.62, 7.20, repro,
2007-12-15,1.24, 1.16, -1.07, 2.16, 1.68, 7.30, repro,
2007-12-16,1.96, 1.34, -6.13, 2.17, 1.67, 7.33, repro,
2007-12-17,-0.20, 1.87, -3.09, 2.19, 1.68, 7.38, repro,
2007-12-18,1.14, 1.82, 2.65, 2.16, 1.67, 7.44, repro,
2007-12-19,0.66, 0.84, 0.57, 2.21, 1.68, 7.53, repro,
2007-12-20,-0.37, 0.28, 2.91, 2.14, 1.66, 7.31, repro,
2007-12-21,1.54, -0.26, -3.82, 2.24, 1.69, 7.61, repro,
2007-12-22,2.14, 0.34, -5.29, 2.25, 1.72, 7.76, repro,
2007-12-23,0.41, 0.28, -3.28, 2.19, 1.70, 7.47, repro,
2007-12-24,-0.14, 1.91, -2.64, 2.21, 1.72, 7.46, repro,
2007-12-25,1.17, 0.22, -4.84, 2.18, 1.71, 7.40, repro,
2007-12-26,1.26, 0.68, 0.75, 2.12, 1.62, 7.17, repro,
2007-12-27,0.30, 0.51, 0.76, 2.18, 1.68, 7.42, repro,
2007-12-28,-0.24, -0.17, -1.27, 2.20, 1.70, 7.52, repro,
2007-12-29,0.06, 1.26, -2.09, 2.17, 1.65, 7.36, repro,
2007-12-30,0.29, 1.76, -7.50, 2.18, 1.67, 7.39, repro,
2007-12-31,1.69, 2.80, -11.57, 2.09, 1.59, 7.07, repro,
2008-01-01,1.39, 1.62, -15.98, 2.11, 1.60, 7.13, repro,
2008-01-02,1.19, 1.45, -11.16, 2.13, 1.61, 7.24, repro,
2008-01-03,0.73, 1.27, -9.92, 2.15, 1.63, 7.30, repro,
2008-01-04,-0.60, 1.86, -7.94, 2.09, 1.57, 7.04, repro,
2008-01-05,-1.02, -0.11, -0.02, 2.07, 1.56, 7.01, repro,
2008-01-06,-0.46, 0.18, 1.79, 2.05, 1.56, 6.91, repro,
2008-01-07,1.80, 0.31, 4.11, 2.10, 1.60, 7.15, repro,
2008-01-08,0.18, 0.95, 2.90, 2.15, 1.61, 7.31, repro,
2008-01-09,-0.68, 0.12, -2.24, 2.15, 1.58, 7.24, repro,
2008-01-10,0.00, 0.68, -4.22, 2.08, 1.57, 7.04, repro,
2008-01-11,0.94, 0.59, -6.66, 2.05, 1.56, 6.89, repro,
2008-01-12,1.28, 0.51, -0.56, 2.07, 1.58, 7.07, repro,
2008-01-13,0.93, 0.59, -8.44, 2.07, 1.59, 7.08, repro,
2008-01-14,0.73, 1.34, -10.05, 2.08, 1.60, 7.15, repro,
2008-01-15,1.15, 1.37, -7.78, 2.07, 1.59, 7.06, repro,
2008-01-16,2.38, 0.22, -9.60, 2.13, 1.59, 7.21, repro,